SCP
0 0 0 0 0 0 0 0 0 0 0 0 0 0 0 0 0 0 0 0 0 0 0 0 0 0 0 0 0 0 0 0 0 1 1 0 0 -0 -0 0 0 0 0
0 0 0 0 0 0 0 0 0 0 0 0 0 0 0 0 0 0 0 0 0 0 0 0 0 0 0 0 0 0 0 0 0 0 1 1 0 0 1 1 1 2 1
0 0 0 0 0 0 0 0 0 0 0 0 0 0 0 0 0 1 1 0 0 0 0 0 0 0 0 0 0 0 0 0 0 0 0 0 0 1 0 0 1 1 1
0 0 0 0 0 0 0 0 0 0 0 0 0 0 0 0 0 0 0 1 1 1 1 0 0 0 0 0 0 0 0 0 0 0 0 0 -0 -0 0 1 1 1 2
0 0 0 0 0 0 0 0 0 0 0 0 0 0 0 0 0 0 0 1 1 1 1 1 0 0 0 0 0 0 0 0 0 -0 -0 -0 0 0 0 1 1 1 2
0 0 0 0 0 0 0 0 0 0 0 0 0 0 0 0 0 0 0 1 1 0 0 0 1 1 0 0 0 0 1 1 1 0 0 0 0 0 1 1 1 1 1
0 0 0 0 0 0 0 0 0 0 0 0 0 0 0 0 0 0 0 0 0 0 0 0 0 0 0 0 0 0 0 0 0 0 0 0 0 1 1 1 1 1 1
0 0 0 0 0 0 0 0 0 0 0 0 0 0 0 0 0 0 0 0 0 0 0 0 0 0 0 0 0 0 0 0 0 0 0 0 0 0 1 1 1 1 1
0 0 0 0 0 0 0 0 0 0 0 0 0 0 0 0 0 0 0 0 0 0 0 0 0 0 0 0 0 0 0 0 0 0 0 0 0 0 0 1 1 1 1
0 0 0 0 0 0 0 0 0 0 0 0 0 0 0 0 0 0 0 0 0 0 0 0 0 0 0 0 0 0 0 0 0 0 0 0 0 0 0 0 0 0 0
0 0 0 0 0 0 0 0 0 0 0 0 0 0 0 0 0 0 0 0 0 0 0 0 0 0 0 0 0 0 0 0 0 0 0 0 0 0 0 0 0 0 0
0 0 0 0 0 0 0 0 0 0 0 0 0 0 0 0 0 0 0 0 0 0 0 0 0 0 0 0 0 0 0 0 0 0 0 0 0 0 0 0 0 0 0
0 0 0 0 0 0 0 0 0 0 0 0 0 0 0 0 0 0 0 0 0 0 0 0 0 0 0 0 0 0 0 0 0 0 0 0 0 0 0 0 0 0 0
0 -0 0 0 0 0 0 0 0 0 0 0 0 0 0 0 0 0 0 0 0 0 0 0 0 0 0 0 0 0 0 0 0 0 0 0 0 0 0 0 0 0 0
0 -0 -0 0 0 0 0 0 0 0 0 0 0 0 0 0 0 0 0 0 0 0 0 0 0 0 0 0 0 0 0 0 0 0 0 0 0 0 0 0 0 0 0
0 -0 0 0 -0 0 0 0 0 0 0 0 0 0 0 0 0 0 0 0 0 0 0 0 0 0 0 0 0 0 0 0 0 -0 0 0 -0 -0 0 0 0 0 0
0 0 0 -0 -0 -0 0 0 0 0 0 0 0 0 0 0 0 0 0 0 0 0 0 0 0 0 0 0 0 0 0 0 0 0 0 -0 -0 -0 0 0 0 0 0
-0 -0 0 -0 -0 -0 0 0 0 0 0 0 0 0 0 0 0 0 0 0 0 0 0 0 0 0 0 0 0 0 0 0 0 0 0 0 -0 0 0 0 0 0 0
0 0 -0 -0 -0 0 0 0 0 0 0 0 0 0 0 0 0 0 0 0 0 0 0 0 0 0 0 0 0 0 0 0 0 0 0 0 0 0 0 0 0 0 0
-0 -0 -0 0 0 0 0 0 0 0 0 0 0 0 0 0 0 0 0 0 0 0 0 0 0 0 0 0 0 0 0 0 0 0 0 0 0 0 -0 0 0 0 0
0 0 0 0 0 0 0 0 0 0 0 0 0 0 0 0 0 0 0 0 0 0 0 0 0 0 0 0 0 0 0 0 0 0 0 0 0 0 0 0 0 0 0
0 0 0 0 0 0 0 0 0 0 0 0 0 0 0 0 0 0 0 0 0 0 0 0 0 0 0 0 0 0 0 0 -0 0 0 0 0 0 0 0 0 0 0
0 0 0 0 0 0 0 0 0 -0 0 0 0 0 0 0 0 0 0 0 0 0 0 0 0 0 0 0 0 0 0 0 0 -0 -0 -0 0 -0 0 0 0 0 0
0 0 0 0 0 0 0 0 0 -0 0 0 0 0 0 0 0 0 0 0 0 0 0 0 0 0 0 0 0 0 0 -0 -0 -0 0 -0 -0 -0 0 0 0 0 0
0 0 0 0 0 0 0 0 0 -0 0 0 0 0 0 0 0 0 0 0 0 0 0 0 0 0 0 0 0 0 -0 -0 -0 -0 -0 -0 -0 -0 0 -0 0 0 0
0 0 0 0 0 0 0 0 0 0 0 0 0 0 0 0 0 0 0 0 0 0 0 0 0 0 0 0 0 0 0 -0 -0 -0 -0 -0 -0 0 -0 0 0 0 -0
Wind_Speed_500mb
26 17 21 18 19 21 21 21 22 26 26 29 29 26 27 26 29 29 26 38 35 37 41 45 31 26 22 20 40 42 26 42 40 34 28 36 42 45 49 46 46 45 43
34 27 21 21 21 24 26 26 26 26 27 28 33 29 35 31 32 29 32 32 40 36 34 32 28 25 36 41 29 31 29 35 32 34 39 27 38 42 42 44 44 45 45
31 29 23 23 25 32 30 27 29 26 26 26 29 31 33 35 38 42 39 30 35 37 45 45 40 35 31 25 32 24 46 38 33 33 42 34 40 44 44 58 48 43 44
31 27 21 23 32 26 25 25 27 29 30 31 33 35 36 40 39 41 44 45 40 47 41 53 46 46 41 32 33 31 28 28 31 35 42 52 54 63 59 55 51 51 56
31 28 21 26 33 24 25 27 29 31 34 34 35 37 39 42 43 40 42 46 39 48 45 41 41 38 40 49 55 51 55 52 54 56 51 52 58 62 60 57 56 54 54
28 29 22 26 27 23 24 29 32 29 31 30 35 40 37 37 32 28 30 30 23 22 29 22 25 27 29 34 42 43 34 41 50 58 68 70 71 66 62 56 55 53 52
26 26 24 24 25 23 24 29 30 29 22 27 33 36 31 24 11 6 10 14 15 17 18 12 9 6 11 16 21 28 32 32 21 36 61 64 67 65 61 61 62 58 54
27 26 27 23 24 20 20 23 25 25 19 25 30 27 21 5 22 16 14 24 25 22 21 17 17 21 22 24 24 26 26 28 31 35 40 40 47 58 63 65 65 64 61
23 21 19 22 18 17 21 23 22 28 23 28 29 26 20 24 33 20 18 17 19 17 21 25 16 9 17 19 26 30 31 33 36 38 38 39 41 44 41 45 60 66 66
27 20 19 23 22 21 17 22 20 26 25 24 25 26 21 19 14 22 23 35 32 29 16 21 18 7 9 8 17 23 31 35 39 42 43 43 42 42 41 42 48 52 61
18 19 19 17 17 17 20 20 24 23 23 30 25 25 22 18 22 21 27 31 32 26 21 24 19 18 18 19 20 24 41 41 43 40 40 43 44 43 41 34 43 45 48
20 21 16 18 22 17 17 19 24 28 27 24 21 23 24 24 24 23 26 31 31 34 18 12 13 18 18 17 25 27 42 34 36 36 32 31 32 36 42 46 45 39 43
24 16 21 23 22 26 27 24 25 26 28 29 31 23 20 22 23 23 25 30 33 29 20 25 17 18 18 31 29 36 29 35 36 37 37 35 34 33 34 37 43 45 43
30 27 26 28 28 25 23 24 23 22 23 23 27 28 23 21 22 23 25 31 35 31 32 14 14 17 17 22 31 36 27 42 37 43 40 38 37 37 36 35 37 39 47
30 35 29 24 26 26 27 25 27 29 28 27 27 31 28 26 26 26 26 26 32 35 34 26 24 20 27 31 42 38 27 36 36 34 40 44 46 48 41 37 38 38 38
20 20 19 20 21 24 26 25 24 27 27 28 26 28 29 29 28 27 28 28 31 34 39 35 35 30 36 33 32 41 44 42 40 40 42 47 52 58 46 39 37 38 38
20 18 18 19 20 19 22 22 22 25 26 25 25 26 28 29 31 31 30 31 35 32 40 41 40 40 41 31 30 36 33 32 35 32 29 46 51 49 39 38 36 35 36
22 21 19 18 20 19 21 22 22 23 25 26 27 29 29 30 31 36 33 40 38 37 37 45 45 44 41 36 34 31 34 30 30 37 50 48 54 51 37 36 36 34 32
20 22 17 19 18 18 17 18 20 22 24 25 28 30 33 35 34 35 36 38 40 44 45 50 53 47 42 44 48 30 35 39 40 38 45 37 42 42 41 45 36 34 30
16 19 17 16 15 19 20 21 20 21 25 27 29 32 36 36 32 35 41 42 44 44 48 48 50 49 48 42 31 41 38 33 43 44 44 40 42 43 37 39 42 35 34
12 15 15 14 15 17 24 29 29 24 26 31 31 33 34 29 39 45 43 45 42 42 44 47 50 46 47 42 42 39 43 38 46 44 44 40 46 42 36 37 36 27 27
10 11 12 12 14 15 24 31 26 21 28 32 31 31 35 36 41 50 51 38 42 43 45 48 45 45 47 48 44 43 45 48 52 40 45 45 36 43 37 33 24 27 25
7 9 8 10 13 16 24 29 19 21 25 28 28 29 37 38 40 61 61 46 42 41 45 44 43 49 53 52 53 50 50 49 49 50 47 40 39 45 38 31 29 31 37
6 6 6 8 11 18 24 31 29 22 25 29 25 23 32 33 48 63 60 48 42 48 48 46 48 50 44 46 43 47 51 47 44 44 38 43 38 35 29 26 27 28 30
6 6 7 8 11 14 25 31 36 28 29 31 31 26 28 24 57 53 53 45 50 60 51 44 40 40 40 43 49 55 38 37 42 39 32 36 35 33 27 25 21 26 27
10 7 9 11 14 13 23 26 32 27 31 34 34 33 27 44 57 49 52 48 52 63 53 49 51 41 34 42 41 44 36 42 42 42 23 34 27 27 19 17 14 20 26
Wind_Direction_500mb
322 337 332 334 325 318 316 318 313 305 303 301 294 285 287 292 289 287 287 297 298 296 293 273 274 284 274 287 264 249 241 247 229 231 260 262 255 247 243 239 241 240 239
317 319 330 320 319 315 311 315 309 309 302 297 293 293 291 292 283 279 278 283 293 286 267 287 282 289 278 285 279 239 237 242 241 243 249 261 272 266 262 255 243 241 242
312 314 321 320 312 313 320 316 307 309 304 298 291 287 284 284 281 280 265 269 268 279 283 270 275 275 283 275 265 297 246 256 229 236 247 233 258 266 262 260 251 252 243
318 318 322 315 304 328 318 316 316 312 308 299 296 290 285 282 279 275 275 269 260 263 274 278 276 270 262 261 268 272 277 275 248 261 248 257 257 256 255 251 253 248 245
326 323 331 315 318 329 318 316 315 315 310 308 304 297 286 279 278 277 279 287 279 281 273 269 271 276 276 268 260 265 259 256 252 245 245 246 254 255 255 251 246 237 239
335 334 332 320 329 327 321 322 327 323 318 315 308 305 300 290 284 281 285 273 271 285 279 274 267 258 264 252 251 247 246 246 243 248 245 246 246 246 245 246 247 243 238
339 342 331 332 330 333 333 337 334 334 339 331 331 321 315 298 297 280 344 332 322 309 321 325 307 356 346 328 263 257 259 252 252 235 237 235 240 242 242 242 241 241 241
343 342 337 340 323 348 327 347 357 358 355 356 351 345 341 83 24 358 0 349 333 330 318 308 306 286 274 288 295 296 289 287 288 284 280 275 264 244 237 241 242 244 246
335 345 339 333 9 349 350 8 9 8 15 11 14 10 357 0 341 14 356 351 333 327 317 295 296 297 314 325 306 298 294 293 294 294 291 284 278 270 265 254 246 243 242
332 353 355 16 17 30 6 17 359 25 10 17 19 22 13 350 352 341 329 349 357 331 330 338 326 348 10 344 343 325 303 304 303 300 295 288 285 280 269 263 260 255 254
335 1 21 7 24 28 9 11 18 19 16 11 15 13 11 7 360 344 336 342 339 338 346 348 355 335 347 342 321 316 303 314 308 301 295 291 286 280 274 270 266 269 272
352 356 43 24 21 20 25 15 19 18 22 14 19 8 9 1 350 341 338 335 327 330 325 332 1 333 328 339 326 323 323 327 333 321 313 304 293 285 276 268 265 264 261
20 27 42 29 34 34 32 31 29 23 24 23 23 15 358 1 353 345 337 333 329 327 312 321 325 326 316 331 319 317 329 324 328 328 326 322 316 306 293 283 274 266 264
37 48 38 49 40 30 31 29 24 32 26 30 17 15 13 356 353 347 340 336 332 330 339 350 325 340 337 346 328 332 329 310 317 320 320 321 316 310 303 297 286 277 267
33 40 41 37 31 26 31 38 32 38 35 31 21 16 17 6 359 353 344 336 334 327 325 319 359 341 336 337 331 320 320 309 312 309 315 320 321 317 306 296 288 282 275
31 31 30 25 25 24 28 37 36 29 27 22 15 10 8 1 358 354 346 339 338 334 327 321 325 331 327 321 308 316 316 321 318 322 312 312 321 319 302 299 293 283 274
23 20 21 22 21 19 21 20 19 15 10 5 5 1 359 355 353 348 343 341 337 332 330 317 315 322 325 315 315 320 321 312 315 331 324 326 320 316 310 299 297 291 279
19 16 19 19 20 16 14 11 7 0 358 359 358 355 352 350 349 349 341 337 334 326 320 313 313 312 309 309 302 321 308 311 307 295 296 299 308 305 308 311 301 290 284
11 14 21 20 19 19 8 4 357 357 358 358 356 351 351 350 348 342 341 333 327 323 317 313 307 302 301 293 309 309 316 308 316 308 321 314 306 306 305 302 300 288 281
360 7 13 11 20 14 13 11 3 5 359 355 356 354 352 351 349 342 337 330 321 318 314 311 310 310 308 314 312 312 313 308 310 309 310 309 314 306 313 297 292 279 273
350 360 12 20 32 17 20 16 16 9 2 358 355 354 354 351 350 337 342 334 333 324 319 315 314 310 316 323 319 322 312 312 310 310 307 304 305 308 306 291 283 261 267
342 354 13 20 23 6 14 14 26 17 3 358 357 356 356 347 348 341 341 347 338 326 317 316 305 314 316 319 318 317 314 314 312 309 314 307 308 305 293 292 276 272 279
332 341 358 10 14 7 11 7 11 12 358 354 353 351 352 348 342 344 345 346 336 332 329 321 317 316 317 318 314 311 309 306 304 302 303 295 306 303 295 298 285 283 288
331 333 355 3 10 341 4 3 7 357 349 346 340 339 348 345 340 344 348 341 342 335 324 317 309 307 309 309 308 304 300 299 300 306 310 305 307 297 307 291 292 290 304
343 356 342 348 347 344 348 356 354 356 351 344 340 332 338 342 345 350 348 345 341 339 333 327 329 321 311 318 319 317 317 303 309 307 312 302 316 312 308 295 275 306 308
357 13 343 318 319 343 328 349 354 351 344 342 338 340 333 335 338 342 340 330 331 335 331 329 327 324 316 319 326 317 313 302 311 315 302 312 311 312 321 305 313 333 319
Wind_Speed_850mb
26 17 21 18 19 21 21 21 22 26 26 29 29 26 27 26 29 29 26 38 35 37 41 45 31 26 22 20 40 42 26 42 40 34 28 36 42 45 49 46 46 45 43
34 27 21 21 21 24 26 26 26 26 27 28 33 29 35 31 32 29 32 32 40 36 34 32 28 25 36 41 29 31 29 35 32 34 39 27 38 42 42 44 44 45 45
31 29 23 23 25 32 30 27 29 26 26 26 29 31 33 35 38 42 39 30 35 37 45 45 40 35 31 25 32 24 46 38 33 33 42 34 40 44 44 58 48 43 44
31 27 21 23 32 26 25 25 27 29 30 31 33 35 36 40 39 41 44 45 40 47 41 53 46 46 41 32 33 31 28 28 31 35 42 52 54 63 59 55 51 51 56
31 28 21 26 33 24 25 27 29 31 34 34 35 37 39 42 43 40 42 46 39 48 45 41 41 38 40 49 55 51 55 52 54 56 51 52 58 62 60 57 56 54 54
28 29 22 26 27 23 24 29 32 29 31 30 35 40 37 37 32 28 30 30 23 22 29 22 25 27 29 34 42 43 34 41 50 58 68 70 71 66 62 56 55 53 52
26 26 24 24 25 23 24 29 30 29 22 27 33 36 31 24 11 6 10 14 15 17 18 12 9 6 11 16 21 28 32 32 21 36 61 64 67 65 61 61 62 58 54
27 26 27 23 24 20 20 23 25 25 19 25 30 27 21 5 22 16 14 24 25 22 21 17 17 21 22 24 24 26 26 28 31 35 40 40 47 58 63 65 65 64 61
23 21 19 22 18 17 21 23 22 28 23 28 29 26 20 24 33 20 18 17 19 17 21 25 16 9 17 19 26 30 31 33 36 38 38 39 41 44 41 45 60 66 66
27 20 19 23 22 21 17 22 20 26 25 24 25 26 21 19 14 22 23 35 32 29 16 21 18 7 9 8 17 23 31 35 39 42 43 43 42 42 41 42 48 52 61
18 19 19 17 17 17 20 20 24 23 23 30 25 25 22 18 22 21 27 31 32 26 21 24 19 18 18 19 20 24 41 41 43 40 40 43 44 43 41 34 43 45 48
20 21 16 18 22 17 17 19 24 28 27 24 21 23 24 24 24 23 26 31 31 34 18 12 13 18 18 17 25 27 42 34 36 36 32 31 32 36 42 46 45 39 43
24 16 21 23 22 26 27 24 25 26 28 29 31 23 20 22 23 23 25 30 33 29 20 25 17 18 18 31 29 36 29 35 36 37 37 35 34 33 34 37 43 45 43
30 27 26 28 28 25 23 24 23 22 23 23 27 28 23 21 22 23 25 31 35 31 32 14 14 17 17 22 31 36 27 42 37 43 40 38 37 37 36 35 37 39 47
30 35 29 24 26 26 27 25 27 29 28 27 27 31 28 26 26 26 26 26 32 35 34 26 24 20 27 31 42 38 27 36 36 34 40 44 46 48 41 37 38 38 38
20 20 19 20 21 24 26 25 24 27 27 28 26 28 29 29 28 27 28 28 31 34 39 35 35 30 36 33 32 41 44 42 40 40 42 47 52 58 46 39 37 38 38
20 18 18 19 20 19 22 22 22 25 26 25 25 26 28 29 31 31 30 31 35 32 40 41 40 40 41 31 30 36 33 32 35 32 29 46 51 49 39 38 36 35 36
22 21 19 18 20 19 21 22 22 23 25 26 27 29 29 30 31 36 33 40 38 37 37 45 45 44 41 36 34 31 34 30 30 37 50 48 54 51 37 36 36 34 32
20 22 17 19 18 18 17 18 20 22 24 25 28 30 33 35 34 35 36 38 40 44 45 50 53 47 42 44 48 30 35 39 40 38 45 37 42 42 41 45 36 34 30
16 19 17 16 15 19 20 21 20 21 25 27 29 32 36 36 32 35 41 42 44 44 48 48 50 49 48 42 31 41 38 33 43 44 44 40 42 43 37 39 42 35 34
12 15 15 14 15 17 24 29 29 24 26 31 31 33 34 29 39 45 43 45 42 42 44 47 50 46 47 42 42 39 43 38 46 44 44 40 46 42 36 37 36 27 27
10 11 12 12 14 15 24 31 26 21 28 32 31 31 35 36 41 50 51 38 42 43 45 48 45 45 47 48 44 43 45 48 52 40 45 45 36 43 37 33 24 27 25
7 9 8 10 13 16 24 29 19 21 25 28 28 29 37 38 40 61 61 46 42 41 45 44 43 49 53 52 53 50 50 49 49 50 47 40 39 45 38 31 29 31 37
6 6 6 8 11 18 24 31 29 22 25 29 25 23 32 33 48 63 60 48 42 48 48 46 48 50 44 46 43 47 51 47 44 44 38 43 38 35 29 26 27 28 30
6 6 7 8 11 14 25 31 36 28 29 31 31 26 28 24 57 53 53 45 50 60 51 44 40 40 40 43 49 55 38 37 42 39 32 36 35 33 27 25 21 26 27
10 7 9 11 14 13 23 26 32 27 31 34 34 33 27 44 57 49 52 48 52 63 53 49 51 41 34 42 41 44 36 42 42 42 23 34 27 27 19 17 14 20 26
Wind_Direction_850mb
322 337 332 334 325 318 316 318 313 305 303 301 294 285 287 292 289 287 287 297 298 296 293 273 274 284 274 287 264 249 241 247 229 231 260 262 255 247 243 239 241 240 239
317 319 330 320 319 315 311 315 309 309 302 297 293 293 291 292 283 279 278 283 293 286 267 287 282 289 278 285 279 239 237 242 241 243 249 261 272 266 262 255 243 241 242
312 314 321 320 312 313 320 316 307 309 304 298 291 287 284 284 281 280 265 269 268 279 283 270 275 275 283 275 265 297 246 256 229 236 247 233 258 266 262 260 251 252 243
318 318 322 315 304 328 318 316 316 312 308 299 296 290 285 282 279 275 275 269 260 263 274 278 276 270 262 261 268 272 277 275 248 261 248 257 257 256 255 251 253 248 245
326 323 331 315 318 329 318 316 315 315 310 308 304 297 286 279 278 277 279 287 279 281 273 269 271 276 276 268 260 265 259 256 252 245 245 246 254 255 255 251 246 237 239
335 334 332 320 329 327 321 322 327 323 318 315 308 305 300 290 284 281 285 273 271 285 279 274 267 258 264 252 251 247 246 246 243 248 245 246 246 246 245 246 247 243 238
339 342 331 332 330 333 333 337 334 334 339 331 331 321 315 298 297 280 344 332 322 309 321 325 307 356 346 328 263 257 259 252 252 235 237 235 240 242 242 242 241 241 241
343 342 337 340 323 348 327 347 357 358 355 356 351 345 341 83 24 358 0 349 333 330 318 308 306 286 274 288 295 296 289 287 288 284 280 275 264 244 237 241 242 244 246
335 345 339 333 9 349 350 8 9 8 15 11 14 10 357 0 341 14 356 351 333 327 317 295 296 297 314 325 306 298 294 293 294 294 291 284 278 270 265 254 246 243 242
332 353 355 16 17 30 6 17 359 25 10 17 19 22 13 350 352 341 329 349 357 331 330 338 326 348 10 344 343 325 303 304 303 300 295 288 285 280 269 263 260 255 254
335 1 21 7 24 28 9 11 18 19 16 11 15 13 11 7 360 344 336 342 339 338 346 348 355 335 347 342 321 316 303 314 308 301 295 291 286 280 274 270 266 269 272
352 356 43 24 21 20 25 15 19 18 22 14 19 8 9 1 350 341 338 335 327 330 325 332 1 333 328 339 326 323 323 327 333 321 313 304 293 285 276 268 265 264 261
20 27 42 29 34 34 32 31 29 23 24 23 23 15 358 1 353 345 337 333 329 327 312 321 325 326 316 331 319 317 329 324 328 328 326 322 316 306 293 283 274 266 264
37 48 38 49 40 30 31 29 24 32 26 30 17 15 13 356 353 347 340 336 332 330 339 350 325 340 337 346 328 332 329 310 317 320 320 321 316 310 303 297 286 277 267
33 40 41 37 31 26 31 38 32 38 35 31 21 16 17 6 359 353 344 336 334 327 325 319 359 341 336 337 331 320 320 309 312 309 315 320 321 317 306 296 288 282 275
31 31 30 25 25 24 28 37 36 29 27 22 15 10 8 1 358 354 346 339 338 334 327 321 325 331 327 321 308 316 316 321 318 322 312 312 321 319 302 299 293 283 274
23 20 21 22 21 19 21 20 19 15 10 5 5 1 359 355 353 348 343 341 337 332 330 317 315 322 325 315 315 320 321 312 315 331 324 326 320 316 310 299 297 291 279
19 16 19 19 20 16 14 11 7 0 358 359 358 355 352 350 349 349 341 337 334 326 320 313 313 312 309 309 302 321 308 311 307 295 296 299 308 305 308 311 301 290 284
11 14 21 20 19 19 8 4 357 357 358 358 356 351 351 350 348 342 341 333 327 323 317 313 307 302 301 293 309 309 316 308 316 308 321 314 306 306 305 302 300 288 281
360 7 13 11 20 14 13 11 3 5 359 355 356 354 352 351 349 342 337 330 321 318 314 311 310 310 308 314 312 312 313 308 310 309 310 309 314 306 313 297 292 279 273
350 360 12 20 32 17 20 16 16 9 2 358 355 354 354 351 350 337 342 334 333 324 319 315 314 310 316 323 319 322 312 312 310 310 307 304 305 308 306 291 283 261 267
342 354 13 20 23 6 14 14 26 17 3 358 357 356 356 347 348 341 341 347 338 326 317 316 305 314 316 319 318 317 314 314 312 309 314 307 308 305 293 292 276 272 279
332 341 358 10 14 7 11 7 11 12 358 354 353 351 352 348 342 344 345 346 336 332 329 321 317 316 317 318 314 311 309 306 304 302 303 295 306 303 295 298 285 283 288
331 333 355 3 10 341 4 3 7 357 349 346 340 339 348 345 340 344 348 341 342 335 324 317 309 307 309 309 308 304 300 299 300 306 310 305 307 297 307 291 292 290 304
343 356 342 348 347 344 348 356 354 356 351 344 340 332 338 342 345 350 348 345 341 339 333 327 329 321 311 318 319 317 317 303 309 307 312 302 316 312 308 295 275 306 308
357 13 343 318 319 343 328 349 354 351 344 342 338 340 333 335 338 342 340 330 331 335 331 329 327 324 316 319 326 317 313 302 311 315 302 312 311 312 321 305 313 333 319